Wind_Speed
16 14 12 10 11 12 12 12 11 10 9 9 9 9 8 8 7 7 6 7 7 7 8 9 10 10 9 8 6 5 6 6 6 6 5 5 6 6 7 7 8 9
18 16 14 12 12 13 12 11 11 11 10 9 9 8 8 7 7 6 6 6 6 6 7 7 8 9 10 9 8 7 6 6 6 6 5 5 6 6 6 7 7 8
20 19 16 14 13 14 14 12 11 12 11 10 9 8 7 7 6 6 5 6 6 6 6 6 7 7 9 9 10 9 8 7 6 6 6 6 7 6 6 7 7 8
22 20 17 15 13 14 14 13 13 12 11 10 9 8 7 6 6 5 5 5 5 5 5 5 5 6 6 8 9 9 8 7 6 6 6 6 7 7 7 7 7 8
21 20 18 16 15 14 15 14 13 13 11 10 8 8 7 6 5 5 4 3 3 3 4 5 5 5 5 5 6 7 7 6 6 5 5 5 5 5 6 6 6 7
20 19 18 17 15 15 15 14 13 13 12 11 10 9 7 6 6 5 4 3 2 2 2 2 3 3 3 3 4 4 4 4 4 4 3 3 3 3 3 4 4 4
19 19 18 17 16 16 16 15 14 14 12 11 11 10 9 7 6 5 5 3 2 1 1 1 1 2 2 3 3 3 3 2 3 3 1 1 2 2 2 2 2 3
19 20 19 17 16 16 16 16 15 14 13 12 11 10 9 8 6 4 3 2 1 1 2 3 3 4 4 4 4 4 4 3 4 4 4 4 3 1 1 0 1 2
17 18 18 17 17 17 17 16 15 14 13 12 11 9 8 7 6 3 2 1 1 2 4 5 6 6 5 5 6 6 6 6 6 6 6 6 6 4 4 4 3 3
14 15 15 15 16 16 17 17 16 14 13 12 11 8 7 6 6 5 4 3 2 4 5 6 8 7 7 8 10 10 9 8 8 9 9 9 9 8 7 7 7 6
12 12 12 12 13 15 17 17 16 15 13 12 11 9 7 6 6 6 7 6 6 6 7 9 8 8 7 9 12 15 14 12 11 11 11 11 11 11 10 10 10 9
11 12 11 11 12 15 17 18 17 16 14 13 12 9 7 7 7 8 8 8 9 9 9 9 9 10 10 10 12 14 14 14 14 14 13 13 12 13 13 13 14 13
13 13 13 14 15 16 18 18 17 16 14 12 10 8 7 6 7 7 7 8 9 10 10 10 10 11 12 11 11 12 12 13 13 14 15 16 16 15 13 13 14 15
12 12 13 15 16 17 17 16 15 14 12 9 8 8 7 5 5 6 7 8 9 9 9 8 8 8 9 10 10 10 10 9 10 11 13 14 15 14 12 12 13 14
10 11 12 14 15 16 15 14 13 12 10 9 9 8 7 6 7 7 8 8 8 8 8 7 6 6 7 7 7 7 7 8 8 9 10 11 12 12 11 11 11 11
11 12 13 13 14 14 14 13 13 12 11 11 10 9 8 7 8 8 8 7 6 6 5 5 4 4 4 5 5 6 6 6 6 7 7 8 9 10 10 10 10 12
11 11 12 12 13 13 13 13 13 12 11 11 10 8 7 7 7 6 6 5 4 4 3 3 2 1 1 1 2 3 4 5 5 5 5 5 6 7 8 8 8 11
10 10 11 11 12 13 12 12 12 11 11 10 9 8 7 7 7 6 6 6 6 6 6 6 6 6 5 4 4 3 3 4 4 5 5 5 5 5 6 5 5 7
9 10 10 10 10 10 10 10 10 10 10 10 9 9 9 10 11 10 10 10 10 11 10 9 9 8 7 6 5 5 5 5 5 5 5 5 6 6 6 5 4 6
8 8 9 9 9 9 9 11 12 12 12 12 12 13 13 14 14 13 13 12 11 10 10 9 8 7 6 6 5 5 5 5 5 5 5 5 6 7 6 6 5 6
9 10 10 10 10 11 12 13 14 14 13 13 13 13 13 13 12 12 11 10 9 8 8 8 7 6 6 6 6 6 5 5 6 6 6 6 5 6 6 7 6 7
10 11 11 11 11 12 13 12 12 12 12 13 12 12 12 11 11 10 9 8 8 8 8 8 7 7 6 6 7 7 6 5 5 6 6 6 5 5 5 5 5 5
9 8 8 9 9 10 11 11 11 11 12 12 12 12 11 10 9 8 7 7 6 6 7 7 7 6 6 6 7 8 7 6 6 6 6 6 5 5 4 4 3 3
5 4 4 5 6 8 9 10 11 11 12 12 11 11 10 9 8 7 6 5 4 4 4 4 4 4 4 6 7 7 7 7 6 6 5 5 4 4 4 4 4 4
8 8 10 11 11 11 11 10 10 10 10 10 9 8 8 8 7 6 5 4 3 2 2 2 2 2 3 5 5 5 6 7 6 5 4 3 3 3 3 4 5 4
9 11 11 12 12 12 11 10 10 9 9 8 7 6 6 5 4 4 3 2 1 0 1 1 1 1 2 3 4 4 4 5 5 4 2 1 1 2 4 5 5 5
Wind_Direction
197 195 190 189 192 189 183 177 172 165 153 145 151 158 156 149 137 125 112 102 96 90 84 74 64 59 62 70 78 88 96 97 98 95 90 93 95 100 103 102 105 103
200 199 195 193 191 189 185 178 171 162 150 143 148 153 152 147 139 129 117 110 105 97 90 81 70 62 61 65 70 80 93 96 91 83 76 78 82 93 105 106 111 110
202 200 198 197 194 189 183 178 172 162 150 148 150 153 150 144 141 135 120 109 105 99 92 86 79 71 66 65 64 68 80 88 90 85 77 73 73 80 95 106 114 114
204 203 201 200 199 193 184 178 175 167 156 152 154 156 156 145 139 139 131 111 99 92 86 81 81 80 72 65 62 62 68 77 84 87 81 76 75 79 87 95 106 109
208 205 202 202 203 198 189 181 178 172 160 155 156 159 163 156 142 141 144 134 101 81 78 77 81 91 84 70 64 59 60 66 73 79 83 83 84 88 90 92 100 105
209 206 203 204 205 201 196 189 182 176 167 162 162 164 168 168 158 149 150 152 133 98 78 72 74 87 87 72 64 57 54 53 49 58 80 90 87 95 100 102 113 114
210 207 203 205 207 204 201 196 188 183 177 173 173 171 169 174 177 170 163 166 169 186 267 322 3 23 29 23 26 29 29 17 0 3 28 56 62 91 113 117 127 129
211 208 204 206 209 206 203 201 196 191 187 185 186 183 178 184 190 186 175 176 197 261 296 315 329 339 347 348 348 344 340 339 328 318 306 302 307 294 243 194 161 165
210 211 208 207 207 206 206 206 203 200 195 195 197 195 193 197 201 208 217 199 226 294 307 330 342 341 334 328 327 324 320 318 311 304 297 290 286 279 268 273 261 229
210 214 212 209 206 205 209 210 208 205 202 199 201 203 203 207 209 217 228 234 275 302 304 313 323 324 316 307 306 308 308 303 296 297 296 292 290 286 273 268 263 250
207 205 203 207 210 209 212 214 210 207 204 200 203 211 212 211 213 220 230 236 246 269 283 291 299 302 301 298 297 299 299 292 287 289 291 290 291 292 283 271 263 254
198 193 195 209 221 219 217 214 210 206 204 203 209 218 220 217 219 224 230 230 229 239 258 275 286 290 296 301 299 295 290 283 280 280 282 286 294 297 290 277 267 259
195 196 202 210 217 220 214 208 203 200 199 202 209 216 215 214 217 221 226 229 232 239 251 268 277 281 291 299 298 294 288 281 277 275 277 285 294 297 293 282 272 265
191 194 198 201 205 208 203 195 191 189 189 193 199 202 204 212 224 235 240 239 240 245 252 263 272 278 285 288 288 291 292 289 283 277 277 282 286 289 289 283 275 271
170 169 172 180 187 190 188 186 186 186 189 195 197 199 206 221 233 238 238 236 237 241 246 254 268 278 278 277 280 284 285 284 284 281 279 279 281 283 287 288 284 280
157 157 159 166 177 182 183 188 195 197 199 200 200 204 213 222 226 225 224 225 226 226 229 236 249 261 260 262 270 273 274 278 282 282 279 277 281 283 288 295 291 279
172 171 169 173 184 191 191 195 201 201 196 194 195 197 200 197 195 198 198 196 189 179 178 179 177 177 194 272 289 283 288 295 294 292 288 281 282 283 288 299 293 277
184 180 178 180 187 193 192 191 192 189 184 184 184 183 182 173 163 161 158 147 135 129 123 117 110 99 88 74 53 33 2 336 318 306 301 293 288 290 294 305 304 291
177 177 178 182 186 188 183 172 167 166 166 165 162 159 154 144 136 133 128 122 117 113 108 103 96 87 76 64 45 32 18 0 343 322 305 294 291 296 302 307 306 301
157 163 168 173 174 169 157 146 142 142 143 144 141 139 133 126 122 119 115 113 110 106 99 91 85 76 62 50 37 23 10 356 346 336 318 298 289 291 294 296 299 299
133 139 140 140 142 139 134 132 132 132 133 134 133 131 127 123 120 116 113 111 107 99 92 83 76 71 62 54 44 30 17 0 347 340 332 320 304 296 292 292 297 300
121 128 131 132 133 134 133 133 134 134 136 137 136 133 131 127 124 120 115 112 107 98 90 83 80 80 76 64 51 41 33 19 3 354 350 346 336 325 317 313 315 318
109 112 116 125 133 140 142 143 144 145 144 143 141 138 136 134 129 124 120 114 109 99 87 80 79 79 70 53 42 37 37 36 25 12 5 4 0 354 352 352 356 14
152 158 158 163 169 167 160 156 154 152 150 151 150 146 144 142 135 130 125 116 104 88 74 68 65 60 48 36 30 30 33 36 33 22 11 10 16 22 32 47 56 57
193 191 187 188 190 184 173 165 162 159 156 154 153 150 147 144 137 130 124 115 101 69 45 38 36 34 26 24 23 25 29 31 32 30 17 15 37 56 76 88 83 69
197 187 184 184 185 184 180 175 173 171 167 162 158 155 150 143 140 140 136 138 149 258 317 327 347 357 359 3 7 15 26 31 33 33 21 26 94 117 121 121 117 110
Height
818 820 820 822 823 825 826 828 830 832 834 835 837 839 840 841 842 842 842 843 843 843 844 844 844 845 845 845 845 845 846 846 847 847 847 847 847 847 847 847 847 847
818 819 820 821 823 824 826 828 830 832 834 835 837 838 840 841 842 842 843 844 844 844 844 845 845 846 846 846 846 847 847 848 848 849 849 849 849 849 848 848 848 848
818 819 820 821 822 824 826 828 830 832 833 835 837 838 840 840 842 843 844 844 845 845 845 845 846 846 847 847 847 847 848 849 849 850 851 851 851 851 850 850 849 849
817 818 819 821 822 824 826 828 830 832 833 835 836 838 839 840 841 842 844 844 845 845 846 846 846 847 847 847 847 848 848 849 850 850 851 852 852 852 852 852 851 851
816 818 818 820 821 823 826 827 829 831 833 835 836 837 839 840 841 842 843 844 845 846 846 846 847 847 847 847 847 848 849 850 850 851 852 852 853 853 853 853 853 853
816 817 817 819 821 823 826 827 829 831 832 834 835 836 838 840 841 841 842 844 845 845 846 846 846 846 847 847 847 848 849 850 851 851 852 852 853 853 854 854 854 854
814 816 816 818 820 822 825 827 828 830 831 832 834 835 837 839 840 840 841 843 844 845 846 846 846 846 847 847 848 849 849 850 851 851 852 852 852 853 853 854 854 855
813 814 815 817 819 821 824 826 827 828 829 831 832 834 836 837 839 840 841 842 843 844 845 845 846 847 847 847 848 848 849 849 850 850 851 851 851 852 852 853 853 854
812 813 815 816 818 820 823 825 826 827 828 830 831 833 835 836 838 839 839 840 841 842 843 844 845 846 846 847 847 848 848 849 849 849 850 850 851 851 851 851 852 853
811 813 814 816 818 819 822 824 825 826 827 829 830 831 833 835 836 837 837 838 839 840 841 843 844 845 845 845 846 847 847 848 848 849 849 849 850 850 851 851 851 851
811 813 815 817 818 819 821 822 824 825 826 827 829 830 831 833 834 834 835 836 837 838 840 841 842 843 843 843 844 845 846 846 847 847 848 848 848 849 849 850 850 851
811 813 814 817 818 819 820 821 823 824 825 826 828 829 830 831 832 832 833 834 835 836 838 839 840 841 841 841 842 843 844 845 845 846 846 846 847 847 848 848 849 850
810 811 813 815 817 818 819 821 822 823 824 825 826 828 829 829 830 831 832 833 834 834 836 837 838 839 839 840 841 842 843 843 844 844 844 844 845 845 846 847 847 848
809 811 812 814 817 818 819 820 821 822 823 824 825 826 827 828 829 830 830 831 832 833 834 835 837 838 838 840 841 841 842 842 842 842 843 843 843 844 844 844 845 846
810 811 813 815 816 818 819 820 820 821 822 823 824 825 826 826 827 828 829 830 831 832 833 834 835 836 838 839 840 840 840 840 840 840 841 841 842 842 842 843 844 844
811 812 813 815 816 817 818 819 819 820 821 822 823 824 824 825 825 826 827 828 829 830 832 833 834 835 836 837 838 839 839 839 839 839 839 840 840 840 841 842 843 842
812 812 813 815 815 816 817 818 818 819 820 822 823 823 823 824 824 825 826 827 828 830 831 832 833 834 835 836 837 837 838 838 838 838 838 839 839 840 840 840 840 840
812 813 814 814 815 816 816 817 817 818 820 821 822 822 823 823 824 825 826 827 828 829 831 832 833 834 835 835 836 836 837 837 837 837 837 837 838 839 839 839 839 838
813 814 814 815 815 816 816 817 817 818 820 820 821 822 823 823 824 825 826 828 829 830 831 832 833 834 834 835 835 836 836 836 836 836 836 836 837 837 837 838 839 838
814 815 815 816 816 817 817 818 818 819 820 821 822 823 824 824 825 826 827 828 830 831 832 832 833 834 834 834 835 835 835 835 835 835 835 835 835 836 836 837 838 838
816 816 817 818 818 818 819 819 820 821 821 822 823 824 825 826 826 827 828 829 830 831 832 832 833 834 834 834 834 835 835 835 835 835 834 834 834 835 835 836 836 836
818 818 818 819 820 820 821 821 822 822 823 823 824 825 825 826 827 828 829 829 830 831 832 833 833 834 834 834 834 834 834 834 834 834 834 834 834 834 834 834 835 835
819 820 820 821 822 822 823 823 823 824 824 824 825 825 826 827 828 828 829 830 830 831 832 833 833 833 834 833 833 834 833 833 833 833 833 833 833 833 834 834 834 834
819 819 820 821 823 823 823 824 824 824 825 825 825 826 826 826 827 828 828 829 830 830 831 832 832 832 833 833 833 833 833 833 833 833 833 833 833 833 833 833 834 834
818 818 818 819 821 822 822 823 823 824 824 825 825 825 825 825 826 826 827 827 828 829 830 830 831 832 832 832 833 832 832 833 832 832 833 833 833 833 833 834 834 834
818 818 818 818 819 820 820 821 822 822 823 824 824 824 824 824 825 825 826 826 827 828 829 829 830 831 831 832 832 832 832 832 832 832 832 832 833 833 834 834 834 834